Location: Abraham Lincoln Continuation High School
(33.9711°N, 117.3662°W)
Time: 14:05:06
(UTC+00:00)

SJ-6B - Pass Details

Date: 21 September 2020
Orbit: 511 x 580 km, 97.6° (Epoch: 29 October)

Event Time Altitude Azimuth Distance (km) Brightness Sun altitude
Exits shadow 03:09:12 20° 43° (NE) 1,230 4.3 -17.5°
Drops below altitude 10° 03:11:01 10° 18° (NNE) 1,742 5.3 -17.9°
Sets 03:13:24 0° 4° (N) 2,639 6.4 -18.4°
